ALK605 YMML-VCBI

Flight info

Callsign ALK605
Flight time N/A
Altitude 34000
Route PEDNI H345 AD N640 EKUNO/N0473F360 N640 EMVAS/N0470F380 N640 LAVIT DCT RUPOK RUPOK1A
Aircraft A333/H-SDE3GHIJ2J3J5M1RVWXY/LB2D1

Departure

Time N/A
Airport Melbourne Airport (YMML)

Arrival

Time 2026-05-07 13:23
Airport Bandaranaike International Colombo Airport (VCBI)
Time Latitude Longitude Altitude Speed Heading
2026-05-07 08:39 -16.74596 106.82347 35964 ft 435 kts 305°
2026-05-07 08:39 -16.72655 106.79921 35965 ft 435 kts 305°
2026-05-07 08:39 -16.68776 106.75074 35973 ft 435 kts 305°
2026-05-07 08:40 -16.64890 106.70223 35958 ft 436 kts 305°
2026-05-07 08:40 -16.61000 106.65370 35951 ft 437 kts 305°
2026-05-07 08:41 -16.57104 106.60513 35969 ft 437 kts 305°
2026-05-07 08:41 -16.53205 106.55655 35969 ft 437 kts 306°
2026-05-07 08:42 -16.49304 106.50798 35964 ft 437 kts 306°
2026-05-07 08:42 -16.45403 106.45945 35966 ft 437 kts 306°
2026-05-07 08:43 -16.41504 106.41098 35964 ft 437 kts 306°
2026-05-07 08:43 -16.37600 106.36247 35957 ft 437 kts 306°
2026-05-07 08:44 -16.33680 106.31379 35956 ft 439 kts 306°
2026-05-07 08:44 -16.29750 106.26502 35959 ft 440 kts 306°
2026-05-07 08:45 -16.25817 106.21626 35955 ft 440 kts 306°
2026-05-07 08:45 -16.21880 106.16750 35955 ft 440 kts 306°
2026-05-07 08:46 -16.17939 106.11870 35959 ft 440 kts 306°
2026-05-07 08:46 -16.14004 106.07000 35949 ft 440 kts 306°
2026-05-07 08:47 -16.10087 106.02158 35953 ft 440 kts 306°
2026-05-07 08:47 -16.06144 105.97285 35948 ft 441 kts 306°
2026-05-07 08:48 -16.02190 105.92402 35950 ft 442 kts 306°
2026-05-07 08:48 -15.98231 105.87517 35950 ft 442 kts 306°
2026-05-07 08:49 -15.94270 105.82633 35950 ft 442 kts 306°
2026-05-07 08:49 -15.90312 105.77755 35950 ft 442 kts 306°
2026-05-07 08:50 -15.86346 105.72871 35946 ft 442 kts 306°
2026-05-07 08:50 -15.82387 105.67998 35947 ft 442 kts 306°
2026-05-07 08:51 -15.78419 105.63119 35944 ft 442 kts 306°
2026-05-07 08:51 -15.74453 105.58244 35944 ft 442 kts 306°
2026-05-07 08:52 -15.70482 105.53366 35944 ft 443 kts 306°
2026-05-07 08:52 -15.66503 105.48483 35944 ft 443 kts 306°
2026-05-07 08:53 -15.62531 105.43611 35941 ft 443 kts 306°
2026-05-07 08:53 -15.58552 105.38733 35941 ft 443 kts 306°
2026-05-07 08:54 -15.54574 105.33860 35941 ft 443 kts 306°
2026-05-07 08:54 -15.50620 105.29019 35936 ft 443 kts 306°
2026-05-07 08:55 -15.46611 105.24115 35938 ft 443 kts 306°
2026-05-07 08:55 -15.42631 105.19249 35936 ft 443 kts 307°
2026-05-07 08:56 -15.38647 105.14381 35934 ft 443 kts 307°
2026-05-07 08:56 -15.34662 105.09515 35935 ft 443 kts 307°
2026-05-07 08:57 -15.30705 105.04687 35937 ft 443 kts 307°
2026-05-07 08:57 -15.26715 104.99821 35931 ft 443 kts 307°
2026-05-07 08:58 -15.22727 104.94961 35936 ft 443 kts 307°
2026-05-07 08:58 -15.18739 104.90104 35936 ft 443 kts 307°
2026-05-07 08:59 -15.14739 104.85235 35935 ft 444 kts 307°
2026-05-07 08:59 -15.10741 104.80372 35930 ft 444 kts 307°
2026-05-07 09:00 -15.06740 104.75509 35933 ft 443 kts 307°
2026-05-07 09:00 -15.02740 104.70650 35933 ft 443 kts 307°
2026-05-07 09:01 -14.98743 104.65798 35930 ft 443 kts 307°
2026-05-07 09:01 -14.94741 104.60943 35925 ft 443 kts 307°
2026-05-07 09:02 -14.90737 104.56088 35927 ft 443 kts 307°
2026-05-07 09:02 -14.86735 104.51238 35928 ft 443 kts 307°
2026-05-07 09:03 -14.82728 104.46385 35925 ft 444 kts 307°
2026-05-07 09:03 -14.78723 104.41539 35925 ft 444 kts 307°
2026-05-07 09:04 -14.74713 104.36690 35922 ft 444 kts 307°
2026-05-07 09:04 -14.70697 104.31835 35922 ft 444 kts 307°
2026-05-07 09:05 -14.67364 104.27808 35922 ft 444 kts 307°
2026-05-07 09:05 -14.63349 104.22961 35922 ft 444 kts 307°
2026-05-07 09:06 -14.58680 104.17328 35919 ft 444 kts 307°
2026-05-07 09:06 -14.54663 104.12484 35919 ft 444 kts 307°
2026-05-07 09:07 -14.50638 104.07634 35922 ft 445 kts 307°
2026-05-07 09:07 -14.47266 104.03572 35919 ft 445 kts 307°
2026-05-07 09:08 -14.43236 103.98722 35916 ft 445 kts 307°
2026-05-07 09:08 -14.39204 103.93871 35916 ft 445 kts 307°
2026-05-07 09:09 -14.35171 103.89024 35917 ft 445 kts 307°
2026-05-07 09:09 -14.31132 103.84172 35916 ft 445 kts 307°
2026-05-07 09:10 -14.27099 103.79328 35919 ft 445 kts 307°
2026-05-07 09:10 -14.23061 103.74483 35914 ft 445 kts 307°
2026-05-07 09:11 -14.19020 103.69637 35914 ft 445 kts 307°
2026-05-07 09:11 -14.14981 103.64796 35914 ft 445 kts 307°
2026-05-07 09:12 -14.10941 103.59955 35912 ft 445 kts 308°
2026-05-07 09:12 -14.06929 103.55152 35911 ft 445 kts 308°
2026-05-07 09:13 -14.02884 103.50314 35914 ft 445 kts 308°
2026-05-07 09:13 -13.98844 103.45482 35914 ft 445 kts 308°
2026-05-07 09:14 -13.94809 103.40660 35911 ft 445 kts 308°
2026-05-07 09:14 -13.90769 103.35836 35911 ft 445 kts 308°
2026-05-07 09:15 -13.86728 103.31012 35914 ft 445 kts 308°
2026-05-07 09:15 -13.82689 103.26193 35910 ft 445 kts 308°
2026-05-07 09:16 -13.78639 103.21364 35908 ft 446 kts 308°
2026-05-07 09:16 -13.74581 103.16528 35911 ft 446 kts 308°
2026-05-07 09:17 -13.70526 103.11700 35908 ft 446 kts 308°
2026-05-07 09:17 -13.66473 103.06877 35908 ft 445 kts 308°
2026-05-07 09:18 -13.62421 103.02056 35908 ft 445 kts 308°
2026-05-07 09:18 -13.58372 102.97243 35905 ft 445 kts 308°
2026-05-07 09:19 -13.54316 102.92424 35906 ft 445 kts 308°
2026-05-07 09:19 -13.50264 102.87611 35904 ft 446 kts 308°
2026-05-07 09:20 -13.46197 102.82784 35909 ft 447 kts 308°
2026-05-07 09:20 -13.42121 102.77949 35906 ft 447 kts 308°
2026-05-07 09:21 -13.38048 102.73122 35905 ft 447 kts 308°
2026-05-07 09:21 -13.33977 102.68299 35905 ft 447 kts 308°
2026-05-07 09:22 -13.29902 102.63474 35902 ft 447 kts 308°
2026-05-07 09:22 -13.25856 102.58685 35902 ft 447 kts 308°
2026-05-07 09:23 -13.21781 102.53864 35903 ft 447 kts 308°
2026-05-07 09:23 -13.17706 102.49047 35901 ft 447 kts 308°
2026-05-07 09:24 -13.13626 102.44226 35899 ft 448 kts 308°
2026-05-07 09:24 -13.09530 102.39390 35900 ft 448 kts 308°
2026-05-07 09:25 -13.05443 102.34566 35900 ft 448 kts 308°
2026-05-07 09:25 -13.01359 102.29749 35901 ft 448 kts 308°
2026-05-07 09:26 -12.97271 102.24930 35900 ft 448 kts 308°
2026-05-07 09:26 -12.93184 102.20114 35901 ft 448 kts 309°
2026-05-07 09:27 -12.89094 102.15298 35898 ft 448 kts 309°
2026-05-07 09:28 -12.82956 102.08074 35896 ft 448 kts 309°
2026-05-07 09:28 -12.78856 102.03252 35900 ft 449 kts 309°
2026-05-07 09:29 -12.74754 101.98431 35901 ft 449 kts 309°
2026-05-07 09:29 -12.70654 101.93614 35900 ft 448 kts 309°
2026-05-07 09:30 -12.66557 101.88804 35900 ft 448 kts 309°
2026-05-07 09:30 -12.62483 101.84023 35898 ft 448 kts 309°
2026-05-07 09:31 -12.58381 101.79212 35898 ft 448 kts 309°
2026-05-07 09:31 -12.54284 101.74409 35897 ft 448 kts 309°
2026-05-07 09:32 -12.50181 101.69601 35893 ft 448 kts 309°
2026-05-07 09:32 -12.46067 101.64784 35894 ft 450 kts 309°
2026-05-07 09:33 -12.41955 101.59970 35896 ft 449 kts 309°
2026-05-07 09:33 -12.37840 101.55157 35894 ft 449 kts 309°
2026-05-07 09:34 -12.33727 101.50348 35890 ft 449 kts 309°
2026-05-07 09:34 -12.29613 101.45540 35893 ft 449 kts 309°
2026-05-07 09:35 -12.25497 101.40732 35889 ft 449 kts 309°
2026-05-07 09:35 -12.21380 101.35927 35892 ft 449 kts 309°
2026-05-07 09:36 -12.17261 101.31120 35886 ft 449 kts 309°
2026-05-07 09:36 -12.13136 101.26309 35893 ft 452 kts 310°
2026-05-07 09:37 -12.08989 101.21476 35891 ft 453 kts 310°
2026-05-07 09:37 -12.04838 101.16640 35891 ft 453 kts 310°
2026-05-07 09:38 -12.00686 101.11805 35895 ft 453 kts 310°
2026-05-07 09:38 -11.96533 101.06972 35888 ft 453 kts 310°
2026-05-07 09:39 -11.92380 101.02141 35890 ft 453 kts 310°
2026-05-07 09:39 -11.88225 100.97310 35890 ft 453 kts 310°
2026-05-07 09:40 -11.84070 100.92481 35887 ft 453 kts 310°
2026-05-07 09:40 -11.79939 100.87682 35888 ft 454 kts 310°
2026-05-07 09:41 -11.75739 100.82807 35888 ft 454 kts 310°
2026-05-07 09:41 -11.71593 100.77997 35890 ft 454 kts 310°
2026-05-07 09:42 -11.67417 100.73153 35886 ft 454 kts 310°
2026-05-07 09:42 -11.63245 100.68317 35888 ft 454 kts 310°
2026-05-07 09:43 -11.59066 100.63476 35886 ft 454 kts 310°
2026-05-07 09:43 -11.54889 100.58639 35885 ft 455 kts 310°
2026-05-07 09:44 -11.50713 100.53805 35883 ft 454 kts 311°
2026-05-07 09:44 -11.46533 100.48970 35883 ft 454 kts 311°
2026-05-07 09:45 -11.42354 100.44138 35883 ft 455 kts 311°
2026-05-07 09:45 -11.38167 100.39299 35880 ft 455 kts 311°
2026-05-07 09:46 -11.33986 100.34470 35883 ft 455 kts 311°
2026-05-07 09:46 -11.29800 100.29637 35880 ft 455 kts 311°
2026-05-07 09:47 -11.25612 100.24804 35881 ft 455 kts 311°
2026-05-07 09:47 -11.21426 100.19976 35879 ft 455 kts 311°
2026-05-07 09:48 -11.17240 100.15150 35881 ft 455 kts 311°
2026-05-07 09:48 -11.13049 100.10321 35877 ft 455 kts 311°
2026-05-07 09:49 -11.08854 100.05488 35878 ft 456 kts 311°
2026-05-07 09:49 -11.04677 100.00680 35877 ft 456 kts 311°
2026-05-07 09:50 -11.00444 99.95809 35885 ft 456 kts 311°
2026-05-07 09:50 -10.96266 99.91004 35880 ft 456 kts 311°
2026-05-07 09:51 -10.92031 99.86135 35879 ft 456 kts 311°
2026-05-07 09:51 -10.87856 99.81338 35881 ft 456 kts 311°
2026-05-07 09:52 -10.83646 99.76503 35878 ft 456 kts 311°
2026-05-07 09:52 -10.79435 99.71669 35877 ft 456 kts 311°
2026-05-07 09:53 -10.75224 99.66837 35879 ft 456 kts 311°
2026-05-07 09:53 -10.71015 99.62009 35878 ft 456 kts 311°
2026-05-07 09:54 -10.66801 99.57178 35879 ft 457 kts 311°
2026-05-07 09:54 -10.63299 99.53164 35880 ft 457 kts 311°
2026-05-07 09:55 -10.59085 99.48337 35880 ft 456 kts 311°
2026-05-07 09:55 -10.54870 99.43511 35878 ft 456 kts 311°
2026-05-07 09:56 -10.50659 99.38692 35879 ft 456 kts 311°
2026-05-07 09:56 -10.46444 99.33870 35878 ft 456 kts 311°
2026-05-07 09:57 -10.42229 99.29051 35876 ft 456 kts 311°
2026-05-07 09:57 -10.38013 99.24231 35877 ft 457 kts 311°
2026-05-07 09:58 -10.33792 99.19409 35877 ft 457 kts 311°
2026-05-07 09:58 -10.29565 99.14582 35877 ft 457 kts 311°
2026-05-07 09:59 -10.25338 99.09757 35877 ft 457 kts 311°
2026-05-07 09:59 -10.21108 99.04932 35878 ft 457 kts 311°
2026-05-07 10:00 -10.16884 99.00114 35878 ft 457 kts 311°
2026-05-07 10:00 -10.12658 98.95296 35877 ft 457 kts 311°
2026-05-07 10:01 -10.08429 98.90478 35877 ft 457 kts 311°
2026-05-07 10:01 -10.04202 98.85663 35877 ft 457 kts 311°
2026-05-07 10:02 -9.99965 98.80839 35874 ft 458 kts 311°
2026-05-07 10:02 -9.95725 98.76013 35877 ft 458 kts 311°
2026-05-07 10:03 -9.91482 98.71187 35877 ft 458 kts 311°
2026-05-07 10:03 -9.87267 98.66395 35874 ft 458 kts 311°
2026-05-07 10:04 -9.83030 98.61579 35871 ft 458 kts 311°
2026-05-07 10:04 -9.78785 98.56756 35874 ft 459 kts 311°
2026-05-07 10:05 -9.74538 98.51933 35872 ft 458 kts 311°
2026-05-07 10:05 -9.70294 98.47114 35870 ft 458 kts 311°
2026-05-07 10:06 -9.66039 98.42286 35868 ft 460 kts 311°
2026-05-07 10:06 -9.61768 98.37442 35869 ft 461 kts 311°
2026-05-07 10:07 -9.57501 98.32604 35873 ft 460 kts 311°
2026-05-07 10:07 -9.53236 98.27771 35869 ft 459 kts 311°
2026-05-07 10:08 -9.48981 98.22950 35871 ft 459 kts 311°
2026-05-07 10:08 -9.44717 98.18123 35869 ft 460 kts 311°
2026-05-07 10:09 -9.40448 98.13290 35865 ft 460 kts 311°
2026-05-07 10:09 -9.36183 98.08464 35867 ft 460 kts 311°
2026-05-07 10:10 -9.31908 98.03629 35865 ft 462 kts 311°
2026-05-07 10:10 -9.27613 97.98773 35866 ft 464 kts 311°
2026-05-07 10:11 -9.23303 97.93901 35863 ft 465 kts 311°
2026-05-07 10:11 -9.18982 97.89021 35867 ft 465 kts 311°
2026-05-07 10:12 -9.14664 97.84144 35864 ft 465 kts 312°
2026-05-07 10:12 -9.10343 97.79267 35861 ft 465 kts 312°
2026-05-07 10:13 -9.06015 97.74384 35866 ft 467 kts 312°
2026-05-07 10:13 -9.01686 97.69501 35869 ft 466 kts 312°
2026-05-07 10:14 -8.97370 97.64635 35857 ft 465 kts 312°
2026-05-07 10:14 -8.93042 97.59758 35858 ft 466 kts 312°
2026-05-07 10:15 -8.88702 97.54869 35859 ft 467 kts 312°
2026-05-07 10:15 -8.84360 97.49978 35859 ft 467 kts 312°
2026-05-07 10:16 -8.80054 97.45130 35861 ft 466 kts 312°
2026-05-07 10:16 -8.75725 97.40259 35866 ft 466 kts 312°
2026-05-07 10:17 -8.71389 97.35382 35855 ft 467 kts 312°
2026-05-07 10:17 -8.67039 97.30490 35853 ft 467 kts 312°
2026-05-07 10:18 -8.62698 97.25610 35860 ft 467 kts 313°
2026-05-07 10:18 -8.58332 97.20704 35857 ft 471 kts 313°
2026-05-07 10:19 -8.53953 97.15786 35853 ft 471 kts 313°
2026-05-07 10:19 -8.49566 97.10860 35852 ft 472 kts 313°
2026-05-07 10:20 -8.45180 97.05936 35853 ft 471 kts 313°
2026-05-07 10:20 -8.40798 97.01020 35853 ft 471 kts 313°
2026-05-07 10:21 -8.36412 96.96101 35855 ft 471 kts 313°
2026-05-07 10:21 -8.32027 96.91186 35853 ft 471 kts 313°
2026-05-07 10:22 -8.27642 96.86271 36057 ft 472 kts 313°
2026-05-07 10:22 -8.25444 96.83808 36267 ft 471 kts 313°
2026-05-07 10:22 -8.23258 96.81358 36571 ft 468 kts 314°
2026-05-07 10:22 -8.21080 96.78920 36794 ft 468 kts 313°
2026-05-07 10:23 -8.18897 96.76475 36930 ft 469 kts 314°
2026-05-07 10:23 -8.16716 96.74034 37142 ft 468 kts 313°
2026-05-07 10:23 -8.14531 96.71589 37296 ft 469 kts 313°
2026-05-07 10:23 -8.12348 96.69145 37480 ft 469 kts 313°
2026-05-07 10:24 -8.10167 96.66703 37735 ft 467 kts 313°
2026-05-07 10:24 -8.07991 96.64267 37848 ft 468 kts 313°
2026-05-07 10:24 -8.05814 96.61829 37849 ft 467 kts 313°
2026-05-07 10:25 -8.01467 96.56969 37850 ft 466 kts 313°
2026-05-07 10:25 -7.97145 96.52138 37845 ft 467 kts 314°
2026-05-07 10:26 -7.92794 96.47278 37846 ft 468 kts 313°
2026-05-07 10:26 -7.88442 96.42416 37845 ft 465 kts 313°
2026-05-07 10:27 -7.84117 96.37585 37844 ft 463 kts 313°
2026-05-07 10:27 -7.79799 96.32764 37847 ft 463 kts 313°
2026-05-07 10:28 -7.75478 96.27941 37846 ft 464 kts 313°
2026-05-07 10:28 -7.71145 96.23106 37845 ft 464 kts 313°
2026-05-07 10:29 -7.66819 96.18281 37845 ft 464 kts 313°
2026-05-07 10:29 -7.62496 96.13461 37844 ft 462 kts 313°
2026-05-07 10:30 -7.56014 96.06235 37845 ft 464 kts 313°
2026-05-07 10:30 -7.51666 96.01392 37844 ft 469 kts 314°
2026-05-07 10:31 -7.47295 95.96525 37841 ft 473 kts 314°
2026-05-07 10:31 -7.42874 95.91603 37842 ft 473 kts 314°
2026-05-07 10:32 -7.38457 95.86686 37842 ft 473 kts 314°
2026-05-07 10:32 -7.34042 95.81773 37843 ft 473 kts 314°
2026-05-07 10:33 -7.29630 95.76866 37843 ft 473 kts 314°
2026-05-07 10:33 -7.25211 95.71952 37837 ft 473 kts 314°
2026-05-07 10:34 -7.20782 95.67030 37838 ft 475 kts 314°
2026-05-07 10:34 -7.16331 95.62083 37839 ft 477 kts 314°
2026-05-07 10:35 -7.11874 95.57132 37839 ft 477 kts 314°
2026-05-07 10:35 -7.07417 95.52182 37839 ft 477 kts 314°
2026-05-07 10:36 -7.02956 95.47229 37843 ft 478 kts 314°
2026-05-07 10:36 -6.98491 95.42274 37837 ft 477 kts 314°
2026-05-07 10:37 -6.94028 95.37322 37838 ft 477 kts 313°
2026-05-07 10:37 -6.89568 95.32375 37841 ft 477 kts 314°
2026-05-07 10:38 -6.85100 95.27421 37837 ft 478 kts 314°
2026-05-07 10:38 -6.80629 95.22465 37842 ft 478 kts 314°
2026-05-07 10:39 -6.76170 95.17522 37829 ft 475 kts 314°
2026-05-07 10:39 -6.71732 95.12606 37832 ft 474 kts 314°
2026-05-07 10:40 -6.67298 95.07695 37832 ft 474 kts 314°
2026-05-07 10:40 -6.62887 95.02812 37833 ft 474 kts 314°
2026-05-07 10:41 -6.58448 94.97898 37838 ft 474 kts 314°
2026-05-07 10:41 -6.54016 94.92994 37840 ft 475 kts 314°
2026-05-07 10:42 -6.49557 94.88061 37833 ft 477 kts 314°
2026-05-07 10:42 -6.45093 94.83124 37835 ft 477 kts 314°
2026-05-07 10:43 -6.41347 94.78983 37834 ft 479 kts 314°
2026-05-07 10:43 -6.36121 94.73207 37835 ft 482 kts 314°
2026-05-07 10:44 -6.32373 94.69065 37835 ft 482 kts 314°
2026-05-07 10:44 -6.27861 94.64080 37835 ft 482 kts 314°
2026-05-07 10:45 -6.23354 94.59102 37835 ft 482 kts 314°
2026-05-07 10:45 -6.18839 94.54116 37837 ft 483 kts 314°
2026-05-07 10:46 -6.14315 94.49123 37834 ft 483 kts 314°
2026-05-07 10:46 -6.09785 94.44125 37837 ft 484 kts 314°
2026-05-07 10:47 -6.05259 94.39130 37838 ft 483 kts 314°
2026-05-07 10:47 -6.00755 94.34162 37839 ft 479 kts 314°
2026-05-07 10:48 -5.96271 94.29218 37835 ft 479 kts 314°
2026-05-07 10:48 -5.91789 94.24277 37838 ft 479 kts 314°
2026-05-07 10:49 -5.87299 94.19330 37844 ft 479 kts 314°
2026-05-07 10:49 -5.82819 94.14392 37844 ft 476 kts 314°
2026-05-07 10:50 -5.78370 94.09491 37824 ft 474 kts 315°
2026-05-07 10:50 -5.73921 94.04592 37847 ft 475 kts 315°
2026-05-07 10:51 -5.69470 93.99693 37821 ft 475 kts 314°
2026-05-07 10:51 -5.65017 93.94793 37841 ft 475 kts 314°
2026-05-07 10:52 -5.60565 93.89893 37840 ft 476 kts 314°
2026-05-07 10:52 -5.56104 93.84984 37839 ft 476 kts 314°
2026-05-07 10:53 -5.51670 93.80107 37851 ft 476 kts 313°
2026-05-07 10:53 -5.47194 93.75187 37830 ft 479 kts 313°
2026-05-07 10:54 -5.42698 93.70244 37849 ft 480 kts 313°
2026-05-07 10:54 -5.38207 93.65307 37849 ft 479 kts 313°
2026-05-07 10:55 -5.33705 93.60360 37834 ft 479 kts 313°
2026-05-07 10:55 -5.29210 93.55422 37840 ft 478 kts 313°
2026-05-07 10:56 -5.24730 93.50500 37841 ft 477 kts 313°
2026-05-07 10:56 -5.20251 93.45583 37841 ft 477 kts 313°
2026-05-07 10:57 -5.15776 93.40670 37841 ft 477 kts 313°
2026-05-07 10:57 -5.11299 93.35756 37840 ft 477 kts 313°
2026-05-07 10:58 -5.06823 93.30844 37840 ft 477 kts 313°
2026-05-07 10:58 -5.02342 93.25929 37841 ft 477 kts 313°
2026-05-07 10:59 -4.97867 93.21020 37839 ft 477 kts 313°
2026-05-07 10:59 -4.93387 93.16107 37838 ft 477 kts 313°
2026-05-07 11:00 -4.88893 93.11180 37842 ft 480 kts 313°
2026-05-07 11:00 -4.84382 93.06235 37844 ft 480 kts 313°
2026-05-07 11:01 -4.79880 93.01301 37840 ft 479 kts 313°
2026-05-07 11:01 -4.75394 92.96385 37841 ft 477 kts 314°
2026-05-07 11:02 -4.70916 92.91480 37836 ft 477 kts 314°
2026-05-07 11:02 -4.66433 92.86571 37836 ft 477 kts 314°
2026-05-07 11:03 -4.61952 92.81664 37838 ft 477 kts 314°
2026-05-07 11:03 -4.57502 92.76792 37838 ft 477 kts 314°
2026-05-07 11:04 -4.53014 92.71880 37838 ft 479 kts 314°
2026-05-07 11:04 -4.48510 92.66951 37841 ft 480 kts 314°
2026-05-07 11:05 -4.44010 92.62027 37836 ft 477 kts 314°
2026-05-07 11:05 -4.39535 92.57132 37838 ft 476 kts 314°
2026-05-07 11:06 -4.35064 92.52242 37838 ft 476 kts 314°
2026-05-07 11:06 -4.30592 92.47351 37837 ft 476 kts 314°
2026-05-07 11:07 -4.26116 92.42456 37834 ft 476 kts 314°
2026-05-07 11:07 -4.21640 92.37563 37835 ft 476 kts 314°
2026-05-07 11:08 -4.17165 92.32671 37834 ft 477 kts 313°
2026-05-07 11:08 -4.12699 92.27791 37838 ft 478 kts 313°
2026-05-07 11:09 -4.08197 92.22870 37837 ft 474 kts 313°
2026-05-07 11:09 -4.03741 92.18002 37838 ft 473 kts 313°
2026-05-07 11:10 -3.99323 92.13176 37836 ft 474 kts 313°
2026-05-07 11:10 -3.94882 92.08327 37836 ft 474 kts 313°
2026-05-07 11:11 -3.90429 92.03465 37838 ft 474 kts 313°
2026-05-07 11:11 -3.85972 91.98599 37838 ft 474 kts 313°
2026-05-07 11:12 -3.81515 91.93734 37835 ft 474 kts 313°
2026-05-07 11:12 -3.77054 91.88865 37834 ft 477 kts 314°
2026-05-07 11:13 -3.72554 91.83956 37830 ft 478 kts 314°
2026-05-07 11:13 -3.68056 91.79048 37832 ft 478 kts 314°
2026-05-07 11:14 -3.63563 91.74147 37835 ft 478 kts 314°
2026-05-07 11:14 -3.59067 91.69244 37835 ft 478 kts 314°
2026-05-07 11:15 -3.54569 91.64338 37833 ft 478 kts 314°
2026-05-07 11:15 -3.50070 91.59433 37834 ft 478 kts 314°
2026-05-07 11:16 -3.45571 91.54528 37830 ft 478 kts 314°
2026-05-07 11:16 -3.41079 91.49631 37830 ft 477 kts 314°
2026-05-07 11:17 -3.36604 91.44754 37833 ft 475 kts 314°
2026-05-07 11:17 -3.32136 91.39886 37833 ft 475 kts 314°
2026-05-07 11:18 -3.27666 91.35016 37832 ft 475 kts 314°
2026-05-07 11:18 -3.23199 91.30150 37832 ft 475 kts 314°
2026-05-07 11:19 -3.18754 91.25308 37831 ft 475 kts 314°
2026-05-07 11:19 -3.14287 91.20444 37832 ft 475 kts 314°
2026-05-07 11:20 -3.09817 91.15577 37830 ft 475 kts 314°
2026-05-07 11:20 -3.05342 91.10703 37830 ft 475 kts 314°
2026-05-07 11:21 -3.00864 91.05830 37836 ft 477 kts 314°
2026-05-07 11:21 -2.96368 91.00937 37834 ft 478 kts 314°
2026-05-07 11:22 -2.91871 90.96042 37835 ft 478 kts 314°
2026-05-07 11:22 -2.87370 90.91143 37831 ft 478 kts 314°
2026-05-07 11:23 -2.82873 90.86251 37834 ft 478 kts 314°
2026-05-07 11:23 -2.78377 90.81359 37835 ft 478 kts 314°
2026-05-07 11:24 -2.73880 90.76467 37826 ft 478 kts 314°
2026-05-07 11:24 -2.69383 90.71576 37824 ft 478 kts 314°
2026-05-07 11:25 -2.64884 90.66683 37834 ft 478 kts 314°
2026-05-07 11:25 -2.60369 90.61774 37832 ft 480 kts 314°
2026-05-07 11:26 -2.55845 90.56855 37831 ft 480 kts 314°
2026-05-07 11:26 -2.51326 90.51941 37829 ft 480 kts 314°
2026-05-07 11:27 -2.46835 90.47059 37832 ft 480 kts 314°
2026-05-07 11:27 -2.42313 90.42144 37832 ft 480 kts 314°
2026-05-07 11:28 -2.37788 90.37227 37832 ft 480 kts 314°
2026-05-07 11:28 -2.33250 90.32296 37832 ft 482 kts 314°
2026-05-07 11:29 -2.28702 90.27354 37830 ft 483 kts 314°
2026-05-07 11:29 -2.24154 90.22412 37834 ft 483 kts 314°
2026-05-07 11:30 -2.19606 90.17472 37834 ft 483 kts 314°
2026-05-07 11:30 -2.15058 90.12531 37836 ft 483 kts 314°
2026-05-07 11:31 -2.10508 90.07589 37829 ft 483 kts 314°
2026-05-07 11:31 -2.05957 90.02647 37828 ft 483 kts 314°
2026-05-07 11:32 -1.99158 89.95280 37829 ft 483 kts 314°
2026-05-07 11:33 -1.94533 89.90415 37834 ft 482 kts 315°
2026-05-07 11:33 -1.89885 89.85574 37831 ft 482 kts 315°
2026-05-07 11:34 -1.85247 89.80736 37829 ft 482 kts 315°
2026-05-07 11:34 -1.81398 89.76713 37830 ft 482 kts 315°
2026-05-07 11:35 -1.75992 89.71058 37826 ft 482 kts 315°
2026-05-07 11:35 -1.71364 89.66216 37827 ft 482 kts 315°
2026-05-07 11:36 -1.67519 89.62193 37822 ft 482 kts 315°
2026-05-07 11:36 -1.62890 89.57352 37822 ft 482 kts 315°
2026-05-07 11:37 -1.58259 89.52509 37826 ft 482 kts 315°
2026-05-07 11:37 -1.53631 89.47669 37825 ft 481 kts 315°
2026-05-07 11:38 -1.49002 89.42827 37821 ft 483 kts 315°
2026-05-07 11:38 -1.44355 89.37969 37824 ft 484 kts 315°
2026-05-07 11:39 -1.39704 89.33106 37829 ft 484 kts 315°
2026-05-07 11:39 -1.35060 89.28250 37828 ft 484 kts 315°
2026-05-07 11:40 -1.30407 89.23386 37828 ft 484 kts 316°
2026-05-07 11:40 -1.25755 89.18523 37828 ft 485 kts 316°
2026-05-07 11:41 -1.21089 89.13645 37825 ft 485 kts 316°
2026-05-07 11:41 -1.16425 89.08770 37825 ft 485 kts 316°
2026-05-07 11:42 -1.11763 89.03898 37823 ft 485 kts 315°
2026-05-07 11:42 -1.07149 88.99026 37825 ft 485 kts 315°
2026-05-07 11:43 -1.02510 88.94134 37817 ft 485 kts 315°
2026-05-07 11:43 -0.97825 88.89278 37821 ft 485 kts 316°
2026-05-07 11:44 -0.93147 88.84418 37825 ft 485 kts 316°
2026-05-07 11:44 -0.88483 88.79547 37817 ft 485 kts 316°
2026-05-07 11:45 -0.83818 88.74666 37820 ft 485 kts 316°
2026-05-07 11:45 -0.79159 88.69788 37820 ft 485 kts 316°
2026-05-07 11:46 -0.74499 88.64910 37819 ft 485 kts 316°
2026-05-07 11:46 -0.69832 88.60026 37816 ft 486 kts 316°
2026-05-07 11:47 -0.65160 88.55137 37821 ft 486 kts 316°
2026-05-07 11:47 -0.60490 88.50250 37821 ft 486 kts 316°
2026-05-07 11:48 -0.55819 88.45362 37819 ft 486 kts 316°
2026-05-07 11:48 -0.51160 88.40487 37818 ft 484 kts 316°
2026-05-07 11:49 -0.46511 88.35623 37818 ft 484 kts 316°
2026-05-07 11:49 -0.41889 88.30787 37824 ft 484 kts 316°
2026-05-07 11:50 -0.37236 88.25919 37820 ft 484 kts 316°
2026-05-07 11:50 -0.32579 88.21046 37822 ft 485 kts 316°
2026-05-07 11:51 -0.27913 88.16165 37822 ft 486 kts 316°
2026-05-07 11:51 -0.23252 88.11287 37822 ft 486 kts 316°
2026-05-07 11:52 -0.18581 88.06401 37820 ft 486 kts 315°
2026-05-07 11:52 -0.13901 88.01505 37819 ft 488 kts 315°
2026-05-07 11:53 -0.09212 87.96599 37821 ft 488 kts 315°
2026-05-07 11:53 -0.04528 87.91697 37824 ft 488 kts 315°
2026-05-07 11:54 0.00163 87.86790 37828 ft 488 kts 315°
2026-05-07 11:54 0.04847 87.81889 37824 ft 488 kts 315°
2026-05-07 11:55 0.09536 87.76984 37823 ft 488 kts 315°
2026-05-07 11:55 0.14181 87.72122 37821 ft 480 kts 315°
2026-05-07 11:56 0.18776 87.67314 37817 ft 477 kts 315°
2026-05-07 11:56 0.23346 87.62533 37817 ft 475 kts 315°
2026-05-07 11:57 0.27914 87.57755 37821 ft 476 kts 315°
2026-05-07 11:57 0.32488 87.52970 37821 ft 476 kts 315°
2026-05-07 11:58 0.37025 87.48223 37821 ft 476 kts 315°
2026-05-07 11:58 0.41593 87.43443 37821 ft 476 kts 315°
2026-05-07 11:59 0.46162 87.38664 37820 ft 476 kts 315°
2026-05-07 11:59 0.50731 87.33883 37821 ft 476 kts 315°
2026-05-07 12:00 0.55297 87.29106 37821 ft 475 kts 315°
2026-05-07 12:00 0.59861 87.24331 37820 ft 475 kts 315°
2026-05-07 12:01 0.64432 87.19549 37817 ft 475 kts 315°
2026-05-07 12:01 0.68997 87.14774 37815 ft 475 kts 315°
2026-05-07 12:02 0.73560 87.09999 37815 ft 475 kts 315°
2026-05-07 12:02 0.78122 87.05226 37814 ft 475 kts 315°
2026-05-07 12:03 0.82692 87.00445 37814 ft 475 kts 315°
2026-05-07 12:03 0.87260 86.95665 37811 ft 476 kts 315°
2026-05-07 12:04 0.91834 86.90878 37815 ft 478 kts 315°
2026-05-07 12:04 0.96440 86.86060 37816 ft 480 kts 315°
2026-05-07 12:05 1.01050 86.81235 37819 ft 480 kts 315°
2026-05-07 12:05 1.05627 86.76446 37814 ft 480 kts 315°
2026-05-07 12:06 1.10234 86.71623 37810 ft 480 kts 315°
2026-05-07 12:06 1.14838 86.66804 37815 ft 480 kts 315°
2026-05-07 12:07 1.19455 86.61971 37809 ft 481 kts 315°
2026-05-07 12:07 1.24076 86.57134 37814 ft 481 kts 315°
2026-05-07 12:08 1.28695 86.52299 37816 ft 480 kts 315°
2026-05-07 12:08 1.33288 86.47491 37812 ft 479 kts 315°
2026-05-07 12:09 1.37892 86.42671 37811 ft 479 kts 315°
2026-05-07 12:09 1.42485 86.37863 37809 ft 479 kts 315°
2026-05-07 12:10 1.47087 86.33045 37802 ft 479 kts 315°
2026-05-07 12:10 1.51685 86.28230 37807 ft 479 kts 315°
2026-05-07 12:11 1.56281 86.23417 37808 ft 479 kts 315°
2026-05-07 12:11 1.60883 86.18597 37809 ft 479 kts 315°
2026-05-07 12:12 1.65398 86.13768 37807 ft 479 kts 314°
2026-05-07 12:12 1.69864 86.08823 37804 ft 479 kts 314°
2026-05-07 12:13 1.74323 86.03864 37804 ft 479 kts 314°
2026-05-07 12:13 1.78790 85.98915 37804 ft 479 kts 314°
2026-05-07 12:14 1.83261 85.93973 37804 ft 479 kts 314°
2026-05-07 12:14 1.87736 85.89030 37803 ft 479 kts 314°
2026-05-07 12:15 1.92208 85.84090 37801 ft 479 kts 314°
2026-05-07 12:15 1.96662 85.79168 37804 ft 476 kts 314°
2026-05-07 12:16 2.01104 85.74259 37809 ft 476 kts 314°
2026-05-07 12:16 2.05539 85.69357 37807 ft 476 kts 314°
2026-05-07 12:17 2.09980 85.64449 37804 ft 476 kts 314°
2026-05-07 12:17 2.14423 85.59538 37804 ft 476 kts 314°
2026-05-07 12:18 2.18861 85.54632 37803 ft 476 kts 314°
2026-05-07 12:18 2.23296 85.49728 37804 ft 476 kts 314°
2026-05-07 12:19 2.27734 85.44820 37808 ft 476 kts 314°
2026-05-07 12:19 2.32171 85.39914 37803 ft 475 kts 313°
2026-05-07 12:20 2.36594 85.35022 37805 ft 474 kts 313°
2026-05-07 12:20 2.41013 85.30134 37804 ft 474 kts 313°
2026-05-07 12:21 2.45435 85.25243 37803 ft 474 kts 313°
2026-05-07 12:21 2.49855 85.20354 37804 ft 474 kts 313°
2026-05-07 12:22 2.54272 85.15466 37804 ft 474 kts 313°
2026-05-07 12:22 2.58694 85.10573 37804 ft 474 kts 313°
2026-05-07 12:23 2.63108 85.05688 37808 ft 474 kts 313°
2026-05-07 12:23 2.66782 85.01621 37807 ft 474 kts 314°
2026-05-07 12:24 2.71935 84.95916 37808 ft 476 kts 314°
2026-05-07 12:24 2.76377 84.91000 37807 ft 476 kts 314°
2026-05-07 12:25 2.80820 84.86081 37803 ft 476 kts 314°
2026-05-07 12:25 2.85261 84.81163 37804 ft 476 kts 314°
2026-05-07 12:26 2.88957 84.77071 37807 ft 476 kts 314°
2026-05-07 12:26 2.93399 84.72150 37807 ft 476 kts 314°
2026-05-07 12:27 2.97845 84.67225 37807 ft 477 kts 314°
2026-05-07 12:27 3.02284 84.62308 37803 ft 475 kts 313°
2026-05-07 12:28 3.06710 84.57404 37805 ft 475 kts 313°
2026-05-07 12:28 3.11136 84.52500 37804 ft 475 kts 313°
2026-05-07 12:29 3.15569 84.47586 37803 ft 475 kts 313°
2026-05-07 12:29 3.20005 84.42669 37806 ft 476 kts 313°
2026-05-07 12:30 3.24433 84.37760 37804 ft 476 kts 313°
2026-05-07 12:30 3.28870 84.32840 37804 ft 476 kts 313°
2026-05-07 12:31 3.33301 84.27926 37810 ft 476 kts 313°
2026-05-07 12:31 3.37731 84.23013 37805 ft 475 kts 313°
2026-05-07 12:32 3.42152 84.18109 37801 ft 474 kts 313°
2026-05-07 12:32 3.46552 84.13227 37802 ft 476 kts 313°
2026-05-07 12:33 3.53206 84.05838 37799 ft 476 kts 313°
2026-05-07 12:33 3.57575 84.00852 37798 ft 476 kts 312°
2026-05-07 12:34 3.61910 83.95837 37799 ft 476 kts 312°
2026-05-07 12:34 3.66247 83.90823 37802 ft 476 kts 313°
2026-05-07 12:35 3.70587 83.85817 37797 ft 476 kts 312°
2026-05-07 12:35 3.74927 83.80816 37796 ft 476 kts 312°
2026-05-07 12:36 3.79272 83.75811 37801 ft 476 kts 312°
2026-05-07 12:36 3.83631 83.70788 37799 ft 481 kts 312°
2026-05-07 12:37 3.88032 83.65715 37798 ft 483 kts 312°
2026-05-07 12:37 3.92439 83.60633 37797 ft 483 kts 312°
2026-05-07 12:38 3.96849 83.55546 37796 ft 483 kts 312°
2026-05-07 12:38 4.01254 83.50466 37796 ft 483 kts 313°
2026-05-07 12:39 4.05650 83.45393 37796 ft 482 kts 313°
2026-05-07 12:39 4.10012 83.40361 37796 ft 482 kts 313°
2026-05-07 12:40 4.14400 83.35297 37796 ft 482 kts 313°
2026-05-07 12:40 4.18791 83.30229 37793 ft 482 kts 313°
2026-05-07 12:41 4.23186 83.25156 37796 ft 482 kts 313°
2026-05-07 12:41 4.27578 83.20083 37793 ft 482 kts 313°
2026-05-07 12:42 4.31968 83.15014 37797 ft 482 kts 313°
2026-05-07 12:42 4.36349 83.09952 37796 ft 480 kts 313°
2026-05-07 12:43 4.40716 83.04908 37797 ft 479 kts 313°
2026-05-07 12:43 4.45088 82.99856 37796 ft 479 kts 313°
2026-05-07 12:44 4.49456 82.94807 37796 ft 480 kts 313°
2026-05-07 12:44 4.53828 82.89753 37796 ft 480 kts 313°
2026-05-07 12:45 4.58199 82.84699 37796 ft 481 kts 313°
2026-05-07 12:45 4.62581 82.79631 37796 ft 481 kts 313°
2026-05-07 12:46 4.66955 82.74571 37795 ft 479 kts 313°
2026-05-07 12:46 4.71294 82.69550 37794 ft 475 kts 313°
2026-05-07 12:47 4.75622 82.64542 37794 ft 475 kts 313°
2026-05-07 12:47 4.79947 82.59536 37793 ft 475 kts 313°
2026-05-07 12:48 4.84274 82.54527 37794 ft 475 kts 313°
2026-05-07 12:48 4.88602 82.49516 37793 ft 475 kts 313°
2026-05-07 12:49 4.92929 82.44504 37787 ft 474 kts 313°
2026-05-07 12:49 4.97214 82.39538 37800 ft 469 kts 313°
2026-05-07 12:50 5.01479 82.34597 37790 ft 469 kts 313°
2026-05-07 12:50 5.05755 82.29642 37793 ft 470 kts 313°
2026-05-07 12:51 5.10027 82.24690 37797 ft 470 kts 313°
2026-05-07 12:51 5.14306 82.19729 37798 ft 470 kts 313°
2026-05-07 12:52 5.18579 82.14773 37793 ft 470 kts 313°
2026-05-07 12:52 5.22827 82.09846 37794 ft 470 kts 313°
2026-05-07 12:53 5.27101 82.04887 37794 ft 470 kts 313°
2026-05-07 12:53 5.31379 81.99922 37794 ft 471 kts 313°
2026-05-07 12:54 5.35664 81.94949 37797 ft 471 kts 313°
2026-05-07 12:54 5.39948 81.89975 37792 ft 471 kts 313°
2026-05-07 12:55 5.44234 81.84996 37790 ft 471 kts 313°
2026-05-07 12:55 5.48521 81.80016 37794 ft 471 kts 313°
2026-05-07 12:56 5.52794 81.75052 37794 ft 471 kts 313°
2026-05-07 12:56 5.57080 81.70071 37796 ft 471 kts 313°
2026-05-07 12:57 5.61364 81.65091 37798 ft 471 kts 313°
2026-05-07 12:57 5.65659 81.60113 37793 ft 473 kts 313°
2026-05-07 12:58 5.69977 81.55126 37791 ft 473 kts 313°
2026-05-07 12:58 5.74287 81.50149 37798 ft 472 kts 313°
2026-05-07 12:59 5.78609 81.45157 37662 ft 478 kts 313°
2026-05-07 12:59 5.80800 81.42626 36973 ft 484 kts 313°
2026-05-07 12:59 5.83025 81.40056 36022 ft 492 kts 313°
2026-05-07 13:00 5.85294 81.37434 35101 ft 501 kts 313°
2026-05-07 13:00 5.87593 81.34776 34267 ft 507 kts 312°
2026-05-07 13:00 5.89913 81.32093 33431 ft 511 kts 312°
2026-05-07 13:00 5.92248 81.29391 32556 ft 515 kts 312°
2026-05-07 13:01 5.94606 81.26662 31637 ft 519 kts 312°
2026-05-07 13:01 5.96963 81.23932 31189 ft 513 kts 312°
2026-05-07 13:01 5.99288 81.21239 30621 ft 509 kts 312°
2026-05-07 13:01 6.01595 81.18567 30116 ft 504 kts 312°
2026-05-07 13:02 6.03887 81.15912 29523 ft 500 kts 312°
2026-05-07 13:02 6.06155 81.13286 28919 ft 496 kts 312°
2026-05-07 13:02 6.08378 81.10712 28322 ft 492 kts 312°
2026-05-07 13:02 6.10609 81.08129 27775 ft 487 kts 312°
2026-05-07 13:03 6.12815 81.05568 27236 ft 482 kts 311°
2026-05-07 13:03 6.14995 81.03025 26671 ft 478 kts 311°
2026-05-07 13:03 6.17151 81.00505 26132 ft 474 kts 311°
2026-05-07 13:03 6.19295 80.97997 25592 ft 471 kts 311°
2026-05-07 13:04 6.21419 80.95511 25055 ft 467 kts 311°
2026-05-07 13:04 6.23523 80.93048 24524 ft 464 kts 311°
2026-05-07 13:04 6.25619 80.90596 23986 ft 461 kts 311°
2026-05-07 13:04 6.27702 80.88159 23449 ft 458 kts 311°
2026-05-07 13:05 6.29770 80.85740 22878 ft 454 kts 311°
2026-05-07 13:05 6.31817 80.83346 22333 ft 449 kts 311°
2026-05-07 13:05 6.33844 80.80975 21802 ft 444 kts 311°
2026-05-07 13:05 6.35601 80.78920 21358 ft 440 kts 311°
2026-05-07 13:06 6.37583 80.76599 20852 ft 435 kts 310°
2026-05-07 13:06 6.39546 80.74303 20345 ft 430 kts 310°
2026-05-07 13:06 6.41484 80.72034 19837 ft 425 kts 310°
2026-05-07 13:06 6.43399 80.69792 19335 ft 421 kts 310°
2026-05-07 13:07 6.45301 80.67565 18838 ft 417 kts 310°
2026-05-07 13:07 6.47235 80.65419 18368 ft 413 kts 317°
2026-05-07 13:07 6.49512 80.63684 17829 ft 409 kts 326°
2026-05-07 13:07 6.51920 80.62182 17308 ft 404 kts 329°
2026-05-07 13:08 6.54324 80.60757 16823 ft 399 kts 329°
2026-05-07 13:08 6.56708 80.59365 16353 ft 393 kts 329°
2026-05-07 13:08 6.59061 80.57999 15883 ft 388 kts 330°
2026-05-07 13:08 6.61380 80.56655 15433 ft 383 kts 330°
2026-05-07 13:09 6.63686 80.55320 14973 ft 379 kts 329°
2026-05-07 13:09 6.65959 80.54005 14504 ft 375 kts 329°
2026-05-07 13:09 6.68192 80.52666 13885 ft 376 kts 328°
2026-05-07 13:09 6.70426 80.51257 13118 ft 380 kts 328°
2026-05-07 13:10 6.72655 80.49845 12507 ft 377 kts 328°
2026-05-07 13:10 6.74868 80.48447 12019 ft 372 kts 328°
2026-05-07 13:10 6.77032 80.47084 11722 ft 362 kts 328°
2026-05-07 13:10 6.79138 80.45759 11367 ft 353 kts 328°
2026-05-07 13:11 6.81185 80.44473 11216 ft 339 kts 328°
2026-05-07 13:11 6.83144 80.43243 11122 ft 325 kts 328°
2026-05-07 13:11 6.85028 80.42060 10975 ft 314 kts 328°
2026-05-07 13:11 6.86851 80.40915 10836 ft 303 kts 328°
2026-05-07 13:12 6.88598 80.39819 10583 ft 298 kts 328°
2026-05-07 13:12 6.90379 80.38701 10204 ft 298 kts 328°
2026-05-07 13:12 6.92133 80.37600 9872 ft 296 kts 328°
2026-05-07 13:12 6.93288 80.36875 9661 ft 295 kts 328°
2026-05-07 13:13 6.95562 80.35377 9177 ft 291 kts 327°
2026-05-07 13:13 6.96675 80.34623 8939 ft 291 kts 326°
2026-05-07 13:13 6.98858 80.33091 8474 ft 285 kts 321°
2026-05-07 13:13 7.00456 80.31954 8235 ft 278 kts 326°
2026-05-07 13:14 7.02059 80.30914 8054 ft 271 kts 328°
2026-05-07 13:14 7.03131 80.30235 7871 ft 270 kts 328°
2026-05-07 13:14 7.04734 80.29241 7548 ft 271 kts 329°
2026-05-07 13:14 7.06879 80.27951 7094 ft 272 kts 330°
2026-05-07 13:15 7.07958 80.27253 6850 ft 274 kts 323°
2026-05-07 13:15 7.09267 80.25862 6501 ft 276 kts 308°
2026-05-07 13:15 7.10424 80.24315 6172 ft 277 kts 307°
2026-05-07 13:15 7.11557 80.22747 5823 ft 277 kts 306°
2026-05-07 13:16 7.12668 80.21159 5469 ft 278 kts 306°
2026-05-07 13:16 7.13788 80.19609 5130 ft 277 kts 307°
2026-05-07 13:16 7.14948 80.18066 4781 ft 275 kts 308°
2026-05-07 13:16 7.16130 80.16557 4421 ft 274 kts 309°
2026-05-07 13:17 7.17338 80.15077 4070 ft 273 kts 309°
2026-05-07 13:17 7.18563 80.13629 3782 ft 270 kts 310°
2026-05-07 13:17 7.19802 80.12219 3499 ft 267 kts 311°
2026-05-07 13:17 7.21012 80.10822 3249 ft 262 kts 309°
2026-05-07 13:18 7.22165 80.09425 3036 ft 256 kts 308°
2026-05-07 13:18 7.23268 80.08043 2847 ft 250 kts 307°
2026-05-07 13:18 7.24311 80.06671 2663 ft 243 kts 306°
2026-05-07 13:18 7.25299 80.05313 2552 ft 239 kts 304°
2026-05-07 13:19 7.26126 80.03842 2409 ft 245 kts 287°
2026-05-07 13:19 7.26361 80.02163 2227 ft 240 kts 270°
2026-05-07 13:19 7.26377 80.00506 2076 ft 233 kts 269°
2026-05-07 13:19 7.26518 79.98913 1979 ft 223 kts 279°
2026-05-07 13:20 7.26813 79.97418 1902 ft 211 kts 279°
2026-05-07 13:20 7.27028 79.96015 1824 ft 193 kts 271°
2026-05-07 13:20 7.26655 79.94828 1693 ft 172 kts 229°
2026-05-07 13:20 7.25746 79.94150 1549 ft 155 kts 212°
2026-05-07 13:21 7.24865 79.93596 1304 ft 145 kts 214°
2026-05-07 13:21 7.24094 79.92979 1077 ft 140 kts 220°
2026-05-07 13:21 7.23345 79.92349 928 ft 140 kts 217°
2026-05-07 13:21 7.22557 79.91770 794 ft 141 kts 218°
2026-05-07 13:22 7.21781 79.91156 647 ft 141 kts 215°
2026-05-07 13:22 7.20987 79.90568 468 ft 142 kts 216°
2026-05-07 13:22 7.20202 79.89976 285 ft 140 kts 218°
2026-05-07 13:22 7.19423 79.89383 100 ft 140 kts 220°
2026-05-07 13:23 7.18694 79.88816 33 ft 113 kts 217°
2026-05-07 13:23 7.18202 79.88442 31 ft 74 kts 217°
2026-05-07 13:23 7.17823 79.88153 34 ft 63 kts 217°
2026-05-07 13:23 7.17566 79.87957 34 ft 14 kts 216°
2026-05-07 13:24 7.17507 79.87939 33 ft 7 kts 152°
2026-05-07 13:24 7.17465 79.87981 32 ft 10 kts 130°
2026-05-07 13:24 7.17427 79.88045 31 ft 11 kts 101°
2026-05-07 13:24 7.17465 79.88104 31 ft 10 kts 37°
2026-05-07 13:25 7.17524 79.88150 31 ft 11 kts 37°
2026-05-07 13:25 7.17587 79.88198 31 ft 10 kts 37°
2026-05-07 13:25 7.17622 79.88245 31 ft 7 kts 91°
2026-05-07 13:25 7.17597 79.88293 31 ft 8 kts 126°
2026-05-07 13:26 7.17559 79.88343 31 ft 8 kts 126°
2026-05-07 13:26 7.17561 79.88371 31 ft 3 kts 54°
2026-05-07 13:26 7.17581 79.88391 22 ft 5 kts 40°
2026-05-07 13:26 7.17607 79.88410 36 ft 1 kts 37°
2026-05-07 13:27 7.17609 79.88412 35 ft 0 kts 37°